Content
SEND FEEDBACK

Daily
Averages
Monthly
Summary
United States of America

ONEONTA, ALABAMA


Home > North America > United States > Alabama
Elevation: 354 meters     Latitude: 33 57N     Longitude: 086 29W

WEATHER
 
SELECT A DAY
Number of Records: 445,041;   Date Range: 1/1/95 - 12/19/14
 
SHARE

PRINT THIS DATA

[ ← Previous Day ]
WEATHER ALMANAC - 31 JANUARY, 2013
[ Next Day → ]
[ °F ]   °C
Weather ElementAverageHighLow
Temperature4.2 °C9 °C (1:36 pm)-1 °C (5:35 am)
Dewpoint-3.9 °C-3 °C (8:15 am)-6 °C (11:55 am)
Humidity57.3 %80 % (5:35 am)37 % (1:55 pm)
Barometer1020 hPa1022.4 hPa (10:55 am)1015.6 hPa (12:35 am)
Wind Speed13.7 km/h27.8 km/h (2:15 am)
Wind Gust38.9 km/h (1:15 am)
Weather ElementAverage
Visibility16.1 km
Wind DirectionWSW (255.5 °)

Weather ElementTotal
Precipitation---
Heating Degree Days14.3 (Base 18.3)
Averaged from 65 records on 31 January, 2013
WEATHER CONDITIONS BREAKOUT
WIND DIRECTION BREAKOUT
WEATHER BY HOUR - 31 JANUARY, 2013
[ °F ]   °C
Local TimeTemperatureDewpointHumidityBarometerVisibilityWind DirectionWind SpeedGust SpeedPrecipitationEventsConditions
12:35 AM3 °C-4 °C60 %1015.6 hPa16.1 kmWNW (290°)20.4 km/h35.2 km/hMostly Cloudy
12:55 AM3 °C-4 °C60 %1015.9 hPa16.1 kmWNW (290°)22.2 km/h35.2 km/hOvercast
1:15 AM3 °C-4 °C60 %1015.9 hPa16.1 kmWest (270°)18.5 km/h38.9 km/hOvercast
1:35 AM3 °C-4 °C60 %1016.3 hPa16.1 kmWest (280°)13 km/hOvercast
2:15 AM2 °C-5 °C60 %1016.6 hPa16.1 kmWest (280°)27.8 km/hPartly Cloudy
2:35 AM2 °C-5 °C60 %1016.6 hPa16.1 kmWNW (290°)16.7 km/h31.5 km/hClear
2:55 AM2 °C-5 °C60 %1016.6 hPa16.1 kmWNW (290°)14.8 km/h31.5 km/hPartly Cloudy
3:15 AM2 °C-5 °C60 %1016.9 hPa16.1 kmWest (280°)16.7 km/hClear
3:35 AM1 °C-5 °C65 %1017.3 hPa16.1 kmWest (280°)13 km/hClear
3:55 AM1 °C-5 °C65 %1017.3 hPa16.1 kmWNW (290°)11.1 km/hPartly Cloudy
4:15 AM1 °C-4 °C70 %1017.3 hPa16.1 kmWest (270°)14.8 km/hPartly Cloudy
4:35 AM1 °C-4 °C70 %1017.3 hPa16.1 kmWest (270°)18.5 km/hClear
4:55 AM1 °C-4 °C70 %1017.9 hPa16.1 kmWSW (240°)7.4 km/hClear
5:15 AM1 °C-4 °C70 %1018.3 hPa16.1 kmSW (230°)9.3 km/hClear
5:35 AM-1 °C-4 °C80 %1018.3 hPa16.1 kmWSW (250°)11.1 km/hClear
5:55 AM0 °C-4 °C75 %1018.6 hPa16.1 kmWSW (240°)9.3 km/hClear
6:15 AM-1 °C-4 °C80 %1018.6 hPa16.1 kmWSW (240°)7.4 km/hClear
6:35 AM0 °C-4 °C75 %1019 hPa16.1 kmWest (260°)14.8 km/hClear
6:55 AM0 °C-4 °C75 %1019.3 hPa16.1 kmWest (260°)13 km/hClear
7:15 AM1 °C-4 °C70 %1019.3 hPa16.1 kmWest (270°)13 km/hClear
7:35 AM1 °C-4 °C70 %1019.6 hPa16.1 kmWest (270°)9.3 km/hClear
7:55 AM1 °C-4 °C70 %1019.6 hPa16.1 kmWest (280°)11.1 km/hClear
8:15 AM2 °C-3 °C70 %1019.6 hPa16.1 kmWNW (290°)14.8 km/hClear
8:35 AM2 °C-3 °C70 %1020 hPa16.1 kmWest (260°)14.8 km/hClear
8:55 AM3 °C-3 °C65 %1020.7 hPa16.1 kmWest (260°)24.1 km/hPartly Cloudy
9:15 AM3 °C-3 °C65 %1021 hPa16.1 kmWest (270°)20.4 km/h29.6 km/hPartly Cloudy
9:35 AM4 °C-3 °C61 %1021.7 hPa16.1 kmWest (270°)22.2 km/h29.6 km/hPartly Cloudy
9:55 AM4 °C-3 °C61 %1022 hPa16.1 kmWest (280°)24.1 km/h35.2 km/hPartly Cloudy
10:15 AM4 °C-3 °C61 %1022 hPa16.1 kmWest (280°)16.7 km/hClear
10:35 AM4 °C-4 °C56 %1022 hPa16.1 kmWest (260°)20.4 km/h27.8 km/hClear
10:55 AM6 °C-4 °C49 %1022.4 hPa16.1 kmWNW (300°)22.2 km/h29.6 km/hClear
11:15 AM6 °C-5 °C46 %1022.4 hPa16.1 kmNW (310°)14.8 km/h33.3 km/hClear
11:35 AM6 °C-3 °C53 %1022 hPa16.1 kmWest (280°)18.5 km/h27.8 km/hClear
11:55 AM7 °C-6 °C39 %1021.7 hPa16.1 kmNW (320°)11.1 km/h27.8 km/hClear
12:15 PM7 °C-4 °C46 %1021.7 hPa16.1 kmWNW (300°)16.7 km/h27.8 km/hClear
12:35 PM8 °C-3 °C46 %1021.7 hPa16.1 kmNW (310°)13 km/h29.6 km/hClear
12:55 PM8 °C-5 °C40 %1021.3 hPa16.1 kmNW (310°)13 km/h27.8 km/hClear
1:15 PM8 °C-4 °C43 %1021 hPa16.1 kmWest (270°)13 km/hClear
1:36 PM9 °C-4 °C40 %1021 hPa16.1 kmNW (310°)20.4 km/h33.3 km/hClear
1:55 PM9 °C-5 °C37 %1021 hPa16.1 kmWest (280°)14.8 km/hClear
2:15 PM9 °C-4 °C40 %1020.7 hPa16.1 kmWest (280°)14.8 km/h27.8 km/hClear
2:35 PM9 °C-4 °C40 %1020.3 hPa16.1 kmWSW (240°)16.7 km/hClear
2:55 PM9 °C-4 °C40 %1020.7 hPa16.1 kmWest (260°)16.7 km/h29.6 km/hClear
3:15 PM9 °C-5 °C37 %1020.7 hPa16.1 kmWest (280°)13 km/hClear
3:35 PM9 °C-4 °C40 %1020.3 hPa16.1 kmWSW (250°)20.4 km/hClear
3:55 PM9 °C-4 °C40 %1020.3 hPa16.1 kmWest (280°)14.8 km/h29.6 km/hClear
4:15 PM9 °C-4 °C40 %1020 hPa16.1 kmWSW (240°)18.5 km/hClear
4:35 PM9 °C-4 °C40 %1020.3 hPa16.1 kmSW (230°)11.1 km/hClear
4:55 PM8 °C-5 °C40 %1020.3 hPa16.1 kmSW (230°)13 km/hClear
5:15 PM8 °C-5 °C40 %1020 hPa16.1 kmWSW (240°)13 km/hClear
5:35 PM7 °C-5 °C43 %1020.3 hPa16.1 kmSSW (210°)5.6 km/hClear
5:55 PM6 °C-4 °C49 %1020.3 hPa16.1 kmSSW (210°)7.4 km/hClear
6:15 PM6 °C-4 °C49 %1020.3 hPa16.1 kmSW (220°)7.4 km/hClear
6:35 PM4 °C-4 °C56 %1020.7 hPa16.1 kmWSW (240°)7.4 km/hClear
6:55 PM3 °C-3 °C65 %1021 hPa16.1 kmWSW (250°)7.4 km/hClear
7:15 PM2 °C-3 °C70 %1021 hPa16.1 kmWSW (240°)7.4 km/hClear
7:35 PM2 °C-3 °C70 %1021.3 hPa16.1 kmWSW (250°)5.6 km/hClear
8:15 PM2 °C-3 °C70 %1021 hPa16.1 kmCalmClear
8:35 PM3 °C-3 °C65 %1021.3 hPa16.1 kmCalmClear
9:15 PM2 °C-3 °C70 %1021.3 hPa16.1 kmSW (230°)5.6 km/hClear
9:35 PM4 °C-3 °C61 %1021.3 hPa16.1 kmWSW (240°)9.3 km/hClear
10:15 PM4 °C-3 °C61 %1021.7 hPa16.1 kmSW (230°)11.1 km/hClear
10:35 PM4 °C-4 °C56 %1021.7 hPa16.1 kmSW (220°)11.1 km/hClear
11:15 PM5 °C-3 °C57 %1021.3 hPa16.1 kmSW (230°)11.1 km/hClear
11:35 PM5 °C-4 °C53 %1021.3 hPa16.1 kmSW (230°)7.4 km/hClear
Hourly data recorded from KGAD, located 0 kilometers away from Oneonta, Alabama







STORIES FROM OUR PARTNERS